The Dalles, WA

1:37 AM PDT on July 17, 2019 (GMT -0700)
Columbia Gorge Regional-The Dalles

Weather History for KDLS - May, 2019

Change the Weather History Date:

Thursday, May 30, 2019

  Actual Average Record
Temperature  
Mean Temperature 70 °F -  
Max Temperature 82 °F 76 °F 107 °F (1986)
Min Temperature 60 °F 51 °F 40 °F (1979)
Cooling Degree Days 6    
Growing Degree Days 20 (Base 50)    
Moisture  
Dew Point 54 °F    
Average Humidity 55    
Maximum Humidity 75    
Minimum Humidity 39    
Precipitation  
Precipitation 0.00 in - - ()
Sea Level Pressure  
Sea Level Pressure 29.89 in    
Wind  
Wind Speed 12 mph (NW)    
Max Wind Speed 21 mph    
Max Gust Speed 25 mph    
Visibility 10 miles    
Events Thunderstorm    
Averages and records for this station are not official NWS values.
T = Trace of Precipitation, MM = Missing Value Source: NWS Daily Summary

Daily Weather History Graph

Daily Weather History Graph

Search for Another Location

Airport or City:

Astronomy

May. 30, 2019 Rise Set
Actual Time 5:20 AM PDT 8:44 PM PDT
Civil Twilight 4:43 AM PDT 9:21 PM PDT
Nautical Twilight 3:55 AM PDT 10:10 PM PDT
Astronomical Twilight 2:53 AM PDT 11:12 PM PDT
Moon 3:44 AM PDT (5/30) 4:43 PM PDT (5/30)
Length of Visible Light 16h 38m
Length of Day
15h 24m
Waning Crescent, 14% of the Moon is Illuminated
May 30
Waning Crescent
Jun 3
New
Jun 9
First Quarter
Jun 17
Full
Jun 25
Last Quarter

Hourly Weather History & Observations

Time (PDT) Temp. Heat Index Dew Point Humidity Pressure Visibility Wind Dir Wind Speed Gust Speed Precip Events Conditions
12:53 AM 66.9 °F - 51.1 °F 57% 29.87 in 10.0 mi NW 12.7 mph - N/A   Mostly Cloudy
1:53 AM 64.9 °F - 52.0 °F 63% 29.87 in 10.0 mi NW 9.2 mph 18.4 mph N/A   Clear
2:53 AM 64.0 °F - 52.0 °F 65% 29.88 in 10.0 mi NNW 12.7 mph - N/A   Clear
3:53 AM 62.1 °F - 52.0 °F 70% 29.88 in 10.0 mi West 3.5 mph - N/A   Clear
4:53 AM 61.0 °F - 53.1 °F 75% 29.89 in 10.0 mi NW 12.7 mph - N/A   Clear
5:53 AM 60.1 °F - 51.1 °F 72% 29.90 in 10.0 mi WSW 5.8 mph - N/A   Mostly Cloudy
6:53 AM 63.0 °F - 53.1 °F 70% 29.91 in 10.0 mi NW 8.1 mph - N/A   Scattered Clouds
7:53 AM 63.0 °F - 53.1 °F 70% 29.92 in 10.0 mi NNW 12.7 mph - N/A   Clear
8:53 AM 66.0 °F - 53.1 °F 63% 29.92 in 10.0 mi NW 9.2 mph - N/A   Overcast
9:53 AM 69.1 °F - 54.0 °F 58% 29.93 in 10.0 mi NW 10.4 mph - N/A   Scattered Clouds
10:53 AM 73.0 °F - 54.0 °F 51% 29.92 in 10.0 mi NW 15.0 mph - N/A   Clear
11:53 AM 75.0 °F - 54.0 °F 48% 29.91 in 10.0 mi NNW 17.3 mph - N/A   Clear
12:53 PM 77.0 °F - 54.0 °F 45% 29.88 in 10.0 mi NNW 20.7 mph 25.3 mph N/A   Clear
1:53 PM 80.1 °F 80.0 °F 54.0 °F 40% 29.87 in 10.0 mi NNW 13.8 mph 23.0 mph N/A   Clear
2:53 PM 81.0 °F 80.5 °F 54.0 °F 39% 29.86 in 10.0 mi NNW 12.7 mph - N/A   Clear
3:53 PM 80.1 °F 80.1 °F 55.0 °F 42% 29.86 in 10.0 mi NNW 16.1 mph - N/A   Clear
4:01 PM 81.0 °F 80.5 °F 54.0 °F 39% 29.86 in 10.0 mi NNW 17.3 mph - N/A Thunderstorm Clear
4:25 PM 81.0 °F 80.5 °F 54.0 °F 39% 29.86 in 10.0 mi NNW 18.4 mph - N/A   Clear
4:53 PM 79.0 °F - 55.0 °F 44% 29.85 in 10.0 mi NW 15.0 mph - N/A   Clear
5:53 PM 77.0 °F - 55.0 °F 47% 29.85 in 10.0 mi NW 13.8 mph - N/A   Clear
6:53 PM 77.0 °F - 55.0 °F 47% 29.86 in 10.0 mi NW 13.8 mph - N/A   Clear
7:53 PM 73.9 °F - 55.9 °F 53% 29.87 in 10.0 mi NW 18.4 mph 24.2 mph N/A   Clear
8:53 PM 72.0 °F - 55.9 °F 57% 29.89 in 10.0 mi NW 13.8 mph - N/A   Clear
9:53 PM 71.1 °F - 55.9 °F 59% 29.91 in 10.0 mi NW 13.8 mph - N/A   Clear
10:53 PM 71.1 °F - 55.9 °F 59% 29.93 in 10.0 mi NW 12.7 mph - N/A   Mostly Cloudy
11:53 PM 69.1 °F - 55.9 °F 63% 29.94 in 10.0 mi NW 12.7 mph - N/A   Mostly Cloudy